Location: Unnamed
(51.5169°N, 0.1311°W)
Time: 19:54:26
(UTC+01:00)

Tiros 1 - Pass Details

Date: 11 August 2024
Orbit: 623 x 655 km, 48.4° (Epoch: 16 September)

Event Time Altitude Azimuth Distance (km) Brightness Sun altitude
Rises 09:54:29 0° 273° (W) 2,981 10.1 37.4°
Reaches altitude 10° 09:56:53 10° 269° (W) 2,067 9.4 37.7°
Maximum altitude 10:01:30 51° 194° (SSW) 827 8.4 38.4°
Drops below altitude 10° 10:06:05 10° 119° (ESE) 2,050 11.0 39.0°
Sets 10:08:27 0° 115° (ESE) 2,954 11.4 39.3°
